Regional Weather Roundup
Issued by NWS Newport/Morehead, NC

Current Version | Previous Version | Graphics & Text | Print | Product List | Glossary On
Versions: 1 2 3 4 5 6 7 8 9 10 11 12 13 14 15 16 17 18 19 20 21 22 23 24 25 26 27 28 29 30 31 32 33 34 35 36 37 38 39 40 41 42 43 44 45 46 47 48 49 50
000 ASUS42 KMHX 030612 RWRMHX WEATHER ROUNDUP FOR EASTERN NORTH CAROLINA NATIONAL WEATHER SERVICE NEWPORT/MOREHEAD CITY NC 100 AM EST TUE MAR 03 2015 NOTE: "FAIR" INDICATES FEW OR NO CLOUDS BELOW 12,000 FEET WITH NO SIGNIFICANT WEATHER AND/OR OBSTRUCTIONS TO VISIBILITY NCZ015>017-031-032-045>047-102-103-030700- NORTH COAST CITY SKY/WX TMP DP RH WIND PRES REMARKS EDENTON FAIR 36 24 61 E3 30.38F ELIZABETH CITY FAIR 36 23 59 NE9 30.40S KITTY HAWK FAIR 37 29 72 N6 30.37S MANTEO FAIR 37 27 65 NE12 30.38F $$ NCZ045>047-081-094-103-104-030700- CENTRAL COAST CITY SKY/WX TMP DP RH WIND PRES REMARKS FRISCO FAIR 39 32 76 NE6 30.37S SWANQUARTER N/A 36 N/A N/A NE1 30.36S $$ NCZ095-097-098-100-101-030700- SOUTHERN COAST CITY SKY/WX TMP DP RH WIND PRES REMARKS BEAUFORT FAIR 39 30 70 NE7 30.38S CEDAR ISLAND N/A 39 N/A N/A VRB8 30.41S JACKSONVILLE NOT AVBL PINEY ISLAND N/A N/A N/A N/A MISG 30.37F WILMINGTON FAIR 42 33 70 NE9 30.35S $$ NCZ011>013-027>030-043-044-078>080-089-090>093-098-030700- COASTAL PLAIN CITY SKY/WX TMP DP RH WIND PRES REMARKS AHOSKIE FAIR 34 21 59 CALM 30.40R CLINTON FAIR 40 35 83 CALM 30.36S ELIZABETHTOWN FAIR 42 36 79 E5 30.34S GOLDSBORO CLOUDY 39 39 98 E7 30.36R GREENVILLE FAIR 37 32 81 E3 30.39S HAVELOCK FAIR 40 29 64 E8 30.39S KENANSVILLE MOCLDY 38 33 81 E5 30.38S KINSTON FAIR 40 31 71 E6 30.38S NEW BERN FAIR 38 31 76 E5 30.39F RICHLANDS MOCLDY 37 28 70 NE7 30.38R ROCKY MOUNT FAIR 39 34 82 E5 30.38F WASHINGTON FAIR 34 31 88 CALM 30.39F WHITEVILLE FAIR 45 39 80 E8G17 30.31F $$ AMZ130-135-150-152-154-156-158-170-250-252-270-ANZ085-086-088-633-658-670-030700- MARINE OBSERVATIONS STATION/POSITION TIME TEMP WIND PRES WAVE SWELL AIR SEA DIR/SP/G HT/PER HT/PER (UTC) (F) (DEG/KT/KT) (MB) (FT/S) (FT/S) CHESAPEAKE LIGHT 0500 36 10/ 13/ 14 1029.9 64 E VA BEACH 0550 43 58 10/ 19/ 23 1027.9 6/ 6 DUCK 0500 1028.2 2 E DUCK 0511 34 N/A 3/ 6 10 NE DUCK 0522 37 N/A 3/ 6 OREGON INLET 0500 1028.5 HATTERAS CG 0500 1028.9 CAPE LOOKOUT 0600 46 40/ 21/ 25 1028.0 BEAUFORT LAB 0500 1027.6 27 SE WRIGHTSVLE NOT AVBL 5 SE WRIGHTSVLE NOT AVBL 225 S CAPE HAT 0550 67 73 40/ 12/ 16 1024.3 6/ 8 5/ 8 41 SE CHARLESTON 0550 65 67 100/ 14/ 16 1023.8 4/ 9 3/ 9 $$

USA.gov is the U.S. government's official web portal to all federal, state and local government web resources and services.